www.pogodaiklimat.ru

ПОГОДА в Блэквелле, OK

  • Прогноз погоды в Блэквелле
  • Монитор погоды в Блэквелле
  • Климат в Блэквелле

АРХИВ ПОГОДЫ в Блэквелле

Время (UTC), дата Ветер
(напр.,м/с)
 
Видим.   Явления Облачность Т
(С)
Тd
(С)
f
(%)
Тe
(С)
Тes
(С)
Комфортность

P
(гПа)

Po
(гПа)
Тmin
(С)
Tmax
(С)
R
(мм)
SD
(см)
17:35 25.05 Ю  5
{8} 
16 км    10/10 0 м  +26.0  +24.0  89  +36  +36  очень
душно 
  979.2         
17:55 25.05 Ю  16 км    10/10 0 м  +26.0  +24.0  89  +36  +36  очень
душно 
  979.2         
18:15 25.05 Ю  16 км    10/10 0 м  +27.0  +24.0  84  +37  +37  очень
душно 
  978.9         
18:35 25.05 Ю  5
{8} 
16 км    10/10 0 м  +27.0  +24.0  84  +37  +37  очень
душно 
  978.5         
18:55 25.05 Ю  16 км    10/10 0 м  +27.0  +24.0  84  +37  +37  очень
душно 
  978.5         
19:15 25.05 Ю  16 км    10/10 0 м  +27.0  +24.0  84  +37  +37  очень
душно 
  978.2         
19:35 25.05 Ю  16 км    8/8 0 м  +28.0  +24.0  79  +39  +40  очень
душно 
  978.2         
19:55 25.05 Ю  6
{9} 
16 км    8/8 0 м  +29.0  +24.0  74  +40  +41  очень
душно 
  977.9         
20:15 25.05 Ю  16 км    5/5 0 м  +29.0  +23.0  70  +39  +40  очень
душно 
  977.6         
20:35 25.05 Ю  16 км    2/2 0 м
[средняя] 
+29.0  +24.0  74  +40  +44  очень
душно 
  977.2         
20:55 25.05 Ю  16 км    5/5 0 м  +28.0  +24.0  79  +39  +42  очень
душно 
  977.2         
21:15 25.05 Ю  16 км    2/2 0 м  +28.0  +24.0  79  +39  +42  очень
душно 
  976.9         
21:35 25.05 ЮВ  4
{7} 
16 км    2/2 0 м  +28.0  +24.0  79  +39  +44  очень
душно 
  976.9         
21:55 25.05 ЮВ  16 км    ясно  +27.0  +24.0  84  +37  +43  очень
душно 
  976.2         
22:15 25.05 ЮВ  4
{7} 
16 км    ясно  +27.0  +24.0  84  +37  +41  очень
душно 
  976.2         
22:35 25.05 ЮВ  16 км    5/5 0 м  +26.0  +24.0  89  +36  +38  очень
душно 
  976.9         
22:55 25.05 ЮВ  16 км    5/0 0 м
[средняя] 
+26.0  +24.0  89  +36  +38  очень
душно 
  976.6         
23:15 25.05 ЮВ  16 км  гроза  8/8 0 м  +25.0  +24.0  94  +34  +35  очень
душно 
  977.6         
23:35 25.05 ЮВ  16 км  гроза  10/10 0 м  +25.0  +24.0  94  +34  +34  очень
душно 
  976.9         
23:55 25.05 ЮВ  14 км  гроза  10/10 0 м  +25.0  +24.0  94  +34  +34  очень
душно 
           
00:15 26.05 ЮВ  14 км  гроза, морось  10/8 0 м
[средняя] 
+25.0  +24.0  94  +34  +34  очень
душно 
           
00:35 26.05 ЮВ  8 км  слабый дождь  10/8 0 м
[средняя] 
+24.0  +24.0  100  +33  +33  очень
душно 
           
00:55 26.05 ЮЗ  6 км  слабый дождь  8/8 0 м  +24.0  +24.0  100  +33  +33  очень
душно 
           
01:15 26.05 З  17
{20} 
2 км  гроза с сильным дождем  10/10 0 м  +20.0  +20.0  100  +22  +22  комфорт    981.1         
01:35 26.05 З  6
{11} 
3 км  гроза с дождем  10/10 0 м  +19.0  +19.0  100  +20  +20      980.5         
01:55 26.05   10 км  гроза, дождь  10/10 0 м  +19.0  +19.0  100  +21  +21  комфорт             
02:15 26.05 СВ  8 км  гроза, дождь  8/8 0 м  +19.0  +19.0  100  +21  +21  комфорт             
02:35 26.05 В  8 км  гроза, дождь  8/8 0 м  +19.0  +19.0  100  +21  +21  комфорт             
02:55 26.05 В  9
{11} 
8 км  гроза, дождь  10/10 0 м  +19.0  +19.0  100  +20  +20               
03:15 26.05 В  7
{11} 
10 км  слабый дождь  10/8 0 м
[средняя] 
+19.0  +19.0  100  +20  +20               
03:35 26.05 ЮВ  6 км  гроза, дождь  10/10 0 м  +19.0  +19.0  100  +20  +20               
03:55 26.05 Ю  5 км  гроза, дождь  10/10 0 м  +19.0  +19.0  100  +20  +20               
04:15 26.05 ЮВ  8
{13} 
5 км  гроза, дымка  8/8 0 м  +19.0  +19.0  100  +20  +20               
04:35 26.05 ЮВ  11 км  гроза, дождь  10/10 0 м  +19.0  +19.0  100  +20  +20      979.2         
04:55 26.05 В  13
{16} 
8 км  гроза со слабым дождем  8/8 0 м  +19.0  +19.0  100  +19  +19               
05:15 26.05 В  10
{14} 
16 км  гроза  8/5 0 м
[средняя] 
+19.0  +19.0  100  +20  +20               
05:35 26.05 В  6
{8} 
16 км  гроза  ясно  +19.0  +19.0  100  +20  +20      976.2         
05:55 26.05 ЮВ  16 км    5/0 0 м
[средняя] 
+19.0  +19.0  100  +21  +21  комфорт    977.2         
06:15 26.05     16 км    8/2 0 м
[средняя] 
+19.0  +19.0  100  +21  +21  комфорт    978.2         
06:35 26.05 Ю  7
{10} 
16 км    10/2 0 м
[средняя] 
+20.0  +20.0  100  +23  +23  комфорт    979.2         
06:55 26.05 Ю  6
{9} 
16 км    10/0 0 м
[средняя] 
+19.0  +19.0  100  +20  +20      978.9         
07:15 26.05 Ю  16 км    10/8 0 м
[средняя] 
+19.0  +19.0  100  +21  +21  комфорт    979.2         
07:35 26.05 Ю  16 км    10/10 0 м  +18.0  +18.0  100  +18  +18      978.9         
07:55 26.05 Ю  16 км    10/8 0 м
[средняя] 
+18.0  +18.0  100  +18  +18      979.2         
08:15 26.05   16 км    10/8 0 м
[средняя] 
+18.0  +18.0  100  +18  +18      978.9         
08:35 26.05   16 км    10/10 0 м  +18.0  +18.0  100  +18  +18      979.2         
08:55 26.05   16 км  гроза  10/10 0 м  +19.0  +19.0  100  +21  +21  комфорт    979.2         
09:15 26.05 З  4
{8} 
16 км  гроза  10/10 0 м  +19.0  +19.0  100  +21  +21  комфорт    980.2         

 

Местоположение метеостанции Blackwell-Tonkawa Municipal Airport: широта 36.7500 долгота -97.3500 высота над уровнем моря 314 м.

В архиве по умолчанию представлена погода в Блэквелле за последние 1-2 суток. Обновление информации о фактической погоде в базе происходит ежечасно! Архивные данные за месяц целиком и за предыдущие месяцы Вы можете получить, выбрав интересующий диапазон дат из раскрывающегося списка и нажав кнопку "Ввод!".

Внимание! Архив погоды МЕТАР в базе сайта хранится не более 60 дней. Нет смысла пытаться выбрать более раннюю дату.

Внимание! Время в таблицах - всемирное. Для получения местного времени необходимо прибавить поправку, которая в Блэквелле равна -6 ч.

Ветер - указаны скорость ветра в м/с и направление, откуда дует ветер: С - северный, СВ - северо-восточный, В - восточный, ЮВ - юго-восточный, Ю - южный, ЮЗ - юго-западный, З - западный, СЗ - северо-западный.
Видимость - горизонтальная дальность видимости в метрах или километрах. При видимости от 1 до 10 км при отсутствии осадков обычно наблюдается дымка, при ухудшении видимости до 1 км и менее - туман. В сухую погоду видимость может ухудшаться дымом, пылью или мглою.
Атмосферные явления - указаны явления, наблюдавшиеся в указанный момент времени.
Облачность - указаны через наклонную черту верхняя и нижняя облачность в баллах и высота нижней границы облаков в метрах. Внимание: облачность, как и прочие метеорологические величины в США измеряются автоматическими метеостанциями. Указанные значения в баллах носят условный характер и показывают процент времени, в течение которого, в среднем, лазерный луч высотомера отражался от облаков обратно.
T - Температура воздуха - температура, измеренная на высоте 2 м над землей.
Td - Температура точки росы - температура, при понижении до которой содержащийся в воздухе водяной пар достигнет насыщения.
f - Относительная влажность воздуха - влажноcть воздуха, измеренная на высоте 2 м над землей.
Te - Эффективная температура - температура, которую ощущает одетый по сезону человек в тени. Характеристика душности погоды. При расчете учитывается влияние влажности воздуха и скорости ветра на теплоощущения человека.
Tes - Эффективная температура на солнце - температура, которую ощущает человек, с поправкой на солнечный нагрев. Характеристика знойности погоды. Зависит от высоты солнца над горизонтом, облачности и скорости ветра. Ночью, в пасмурную погоду, а также при ветре 12 м/с и более поправка равна нулю.
P - Атмосферное давление - приведенное к уровню моря атмосферное давление.
Po - Атмосферное давление - измеренное на уровне метеостанции атмосферное давление.
Tmin - Минимальная температура - минимум температуры воздуха на высоте 2 м над землей.
Tmax - Максимальная температура - максимум температуры воздуха на высоте 2 м над землей.
R - Количество осадков - Количество выпавших осадков за 3 или 6 часов, мм.
SD - Снежный покров - Высота снежного покрова, см.